Regional Weather Roundup
Issued by NWS Midland/Odessa, TX

Skip options and go directly to product.
Home | Oldest Version | Previous Version | Current Version | All | Graphics & Text | Save Text | Print | Product List | Glossary On

Skip product version selection by date and time.   
134
ASUS44 KMAF 251410
RWRMAF
MIDLAND AREA WEATHER ROUNDUP
NATIONAL WEATHER SERVICE MIDLAND TX
900 AM CDT SAT APR 25 2015

...IN SOUTHWEST TEXAS AND SOUTHEAST NEW MEXICO...

CITY           SKY/WX    TMP DP  RH WIND       PRES   REMARKS
ALPINE         SUNNY     58  36  44 CALM      30.08R
ANDREWS        FAIR      59  33  37 W9        29.92R
ARTESIA        SUNNY     59  32  36 W12       29.94R
BIG SPRING     SUNNY     62  33  33 CALM      29.91R
CARLSBAD       SUNNY     65  33  30 W12       29.92R
DRYDEN           N/A     72  37  28 W7        29.91R
FORT STOCKTON  SUNNY     62  34  35 SW12      29.96R
GUAD PASS      SUNNY     48  29  47 SW13      30.02R
HOBBS          SUNNY     57  32  38 W8        29.93R
MARFA          SUNNY     52  36  54 CALM      30.06R
MIDLAND AIRPK  SUNNY     64  34  33 W13       29.91R
MIDLAND INTL   SUNNY     65  37  35 W12       29.90R
ODESSA         SUNNY     66  33  29 W12       29.91R
PECOS          SUNNY     56  33  40 SW7       29.94R
PRESIDIO       FAIR      64  32  29 MISG      29.99R
SEMINOLE       SUNNY     57  34  41 W12       29.91S
SNYDER         SUNNY     58  40  51 W12       29.86R
WINK           SUNNY     65  31  28 W13       29.91R
$$
...OTHER STATIONS IN TEXAS...

CITY           SKY/WX    TMP DP  RH WIND       PRES   REMARKS
ABILENE        SUNNY     68  40  35 W10       29.82R
AMARILLO       SUNNY     62  33  33 W21G28    29.78S
AUSTIN         CLOUDY    67  66  97 S3        29.81F
BROWNSVILLE    MOSUNNY   82  77  84 S14       29.76R HAZE
CORPUS CHRISTI CLOUDY    76  72  87 N5        29.79R
DALLAS FTW     MOSUNNY   66  55  67 SW14      29.72R
DEL RIO        PTSUNNY   70  69  97 W3        29.86S FOG
EL PASO        SUNNY     60  31  33 SW7       29.99R
HOUSTON INT    RAIN      68  65  90 CALM      29.83F
LUBBOCK        SUNNY     60  36  40 W21       29.83S
SAN ANGELO     SUNNY     60  43  53 W7        29.86S
SAN ANTONIO    MOSUNNY   71  67  87 N5        29.83S
WACO           MOSUNNY   72  67  84 SW8       29.78R
WICHITA FALLS  NOT AVBL
$$
...OTHER LOCATIONS IN NEW MEXICO...

CITY           SKY/WX    TMP DP  RH WIND       PRES   REMARKS
ALAMAGORDO     SUNNY     55  32  41 S8        29.99R
ALBUQUERQUE    MOSUNNY   48  36  63 CALM      29.98R
CANNON AFB     SUNNY     55  35  46 W20       29.86S
CLOVIS         SUNNY     54  34  47 W18G24    29.86S
HOLLOMAN AFB   SUNNY     52  32  47 SE6       29.97R
ROSWELL        SUNNY     56  35  45 CALM      29.92R
RUIDOSO        SUNNY     46  28  49 N7        30.04S
SANTA FE       SUNNY     45  32  60 CALM      29.97S
TRUTH OR CONSE SUNNY     51  32  48 W5        29.98R
TUCUMCARI      SUNNY     58  34  40 W16       29.82S
$$

USA.gov is the U.S. government's official web portal to all federal, state and local government web resources and services.